Location: Fosso Corella
(43.9167°N, 11.5667°E)
Time: 10:22:51
(UTC+00:00)

Cosmos 1400 Rocket - Pass Details

Date: 07 June 2020
Orbit: 522 x 568 km, 81.2° (Epoch: 07 July)

Event Time Altitude Azimuth Distance (km) Brightness Sun altitude
Rises 00:02:05 0° 356° (N) 2,779 7.7 -22.3°
Reaches altitude 10° 00:04:22 10° 3° (N) 1,877 6.6 -22.3°
Maximum altitude 00:08:20 43° 75° (ENE) 805 3.8 -22.1°
Enters shadow 00:09:24 35° 115° (ESE) 923 3.8 -22.0°
